OneWeb SL0291

operational
NORAD ID: 49081 Int'l Des: 2021-075 Owner: ONEWEBN Country: UK Constellation: oneweb
LEOCIRCULARPOLARONEWEB_TYPE

关于 OneWeb SL0291

正在加载描述...

实时位置

正在加载3D地球...

即将过境

高度历史

Altitude vs Time

uPlot chart will show altitude changes over time

两行轨道根数

1 49081U 21075G 25304.29167405 .00000035 00000-0 57919-4 0 9998
2 49081 87.9134 51.3640 0001794 89.6884 270.4453 13.17649692203467
Epoch: Oct 31, 2025 • Age: 9 hours

当前状态

高度 1198.9 km
速度 7.25 km/s
星下点 -10.90°S, 129.81°E
发射日期 Aug 21, 2021
运行时间 4.1 years
类型 internet

技术详情

分类 Payload
质量 148.00 kg
干质量 140.00 kg
总质量 148.00 kg
长度 1.30 m
直径 1.00 m
跨度 5.00 m
形状 Trapezoid+2 pan
制造商 ONEWUS
平台类型 ARROW
阶段状态 In Orbit
所有者/国家 ONEWEBN/UK

大型星座

Loading constellations...